Total_Precipitation_Accumulation
0.00 0.01 0.05 0.13 0.29 0.58 0.78 0.56 0.42 0.33 0.44 0.48 0.43 0.38 0.39 0.30 0.30 0.29 0.08 0.02 0.00 0.00 0.01 0.04 0.07 0.06 0.04 0.04 0.05 0.06 0.06 0.07 0.07 0.06 0.05 0.04 0.03 0.03 0.02 0.02 0.01 0.02 0.02 0.02 0.02 0.02 0.02 0.02 0.01
0.00 0.01 0.05 0.14 0.34 0.75 0.91 0.53 0.28 0.32 0.45 0.61 0.59 0.45 0.34 0.26 0.24 0.12 0.03 0.01 0.00 0.01 0.01 0.01 0.05 0.05 0.04 0.03 0.04 0.05 0.06 0.06 0.05 0.05 0.04 0.03 0.03 0.03 0.03 0.02 0.02 0.02 0.03 0.03 0.03 0.02 0.02 0.01 0.01
0.00 0.02 0.06 0.10 0.26 0.54 0.72 0.45 0.33 0.28 0.45 0.68 0.65 0.39 0.35 0.30 0.23 0.12 0.03 0.01 0.01 0.01 0.01 0.02 0.03 0.04 0.03 0.03 0.04 0.05 0.05 0.05 0.05 0.04 0.03 0.03 0.03 0.03 0.04 0.03 0.03 0.03 0.04 0.05 0.04 0.03 0.03 0.02 0.01
0.00 0.03 0.06 0.08 0.12 0.20 0.34 0.40 0.42 0.40 0.57 0.71 0.56 0.40 0.37 0.33 0.27 0.13 0.03 0.02 0.01 0.01 0.01 0.03 0.05 0.05 0.05 0.04 0.04 0.05 0.06 0.05 0.05 0.05 0.04 0.03 0.03 0.04 0.04 0.04 0.05 0.06 0.07 0.07 0.06 0.06 0.05 0.04 0.02
0.00 0.03 0.04 0.07 0.11 0.11 0.17 0.24 0.32 0.48 0.64 0.74 0.61 0.46 0.38 0.30 0.21 0.12 0.05 0.03 0.02 0.02 0.03 0.04 0.05 0.05 0.05 0.05 0.05 0.06 0.06 0.07 0.06 0.05 0.05 0.04 0.04 0.04 0.05 0.04 0.05 0.06 0.08 0.10 0.11 0.09 0.09 0.07 0.05
0.01 0.02 0.03 0.04 0.05 0.07 0.13 0.19 0.34 0.53 0.55 0.61 0.67 0.59 0.39 0.27 0.18 0.14 0.10 0.06 0.03 0.03 0.03 0.04 0.05 0.06 0.06 0.06 0.06 0.07 0.07 0.08 0.08 0.07 0.08 0.07 0.07 0.07 0.07 0.07 0.06 0.07 0.08 0.10 0.14 0.15 0.13 0.11 0.10
0.00 0.01 0.01 0.01 0.01 0.05 0.14 0.26 0.31 0.44 0.49 0.68 0.71 0.59 0.36 0.32 0.23 0.18 0.18 0.13 0.07 0.06 0.05 0.05 0.05 0.07 0.07 0.09 0.11 0.12 0.12 0.12 0.11 0.10 0.09 0.09 0.10 0.11 0.12 0.14 0.12 0.12 0.13 0.14 0.15 0.17 0.20 0.18 0.15
0.00 0.00 0.00 0.00 0.01 0.05 0.13 0.21 0.30 0.42 0.54 0.59 0.66 0.63 0.41 0.39 0.35 0.34 0.27 0.20 0.17 0.14 0.11 0.07 0.08 0.12 0.15 0.14 0.13 0.15 0.15 0.15 0.14 0.13 0.13 0.13 0.15 0.18 0.23 0.23 0.22 0.24 0.26 0.25 0.23 0.22 0.26 0.31 0.29
0.00 0.00 0.00 0.00 0.01 0.08 0.16 0.21 0.27 0.31 0.40 0.57 0.70 0.76 0.56 0.44 0.44 0.52 0.38 0.30 0.28 0.28 0.25 0.25 0.22 0.19 0.20 0.22 0.18 0.21 0.21 0.22 0.22 0.27 0.27 0.26 0.25 0.29 0.40 0.41 0.45 0.46 0.49 0.54 0.53 0.50 0.53 0.57 0.51
0.00 0.00 0.00 0.00 0.00 0.03 0.10 0.19 0.25 0.35 0.53 0.93 1.12 0.91 0.67 0.59 0.58 0.64 0.56 0.40 0.36 0.39 0.37 0.41 0.36 0.34 0.38 0.40 0.37 0.40 0.41 0.49 0.46 0.55 0.61 0.62 0.62 0.46 0.39 0.63 0.81 0.81 0.93 0.99 1.03 1.21 1.15 0.98 0.75
0.00 0.00 0.00 0.00 0.00 0.01 0.05 0.12 0.22 0.39 0.73 1.21 1.29 0.93 0.78 0.67 0.67 0.66 0.71 0.59 0.54 0.48 0.44 0.49 0.46 0.47 0.53 0.54 0.55 0.63 0.72 0.85 0.85 0.89 0.98 1.12 1.13 0.92 0.76 0.97 1.23 1.24 1.32 1.32 1.56 1.81 1.42 1.28 1.19
0.00 0.00 0.00 0.00 0.00 0.01 0.04 0.11 0.28 0.53 0.90 1.16 1.01 0.75 0.74 0.82 0.77 0.78 0.79 0.86 0.82 0.72 0.68 0.66 0.68 0.72 0.71 0.74 0.74 0.70 0.70 0.76 0.84 0.96 1.07 1.41 1.48 1.43 1.36 1.40 1.35 1.50 1.58 1.82 1.89 1.86 1.68 1.63 1.53
0.00 0.00 0.00 0.00 0.00 0.02 0.06 0.12 0.31 0.60 0.79 0.83 0.64 0.55 0.70 0.89 0.90 0.98 1.02 0.97 0.99 1.11 1.17 1.15 1.13 1.03 0.96 0.88 0.78 0.72 0.71 0.69 0.72 0.91 1.08 1.42 1.61 1.65 1.74 1.47 1.37 1.35 1.56 1.83 1.78 1.63 1.67 1.76 1.79
0.00 0.00 0.01 0.01 0.01 0.03 0.07 0.14 0.29 0.46 0.57 0.58 0.55 0.61 0.63 0.78 0.86 0.97 1.13 1.16 1.30 1.50 1.63 1.63 1.56 1.39 1.26 1.11 1.00 0.97 0.91 0.79 0.69 0.85 0.95 1.34 1.64 1.60 1.48 1.46 1.45 1.38 1.55 1.60 1.67 1.71 1.85 1.88 1.96
0.00 0.01 0.05 0.05 0.04 0.05 0.06 0.17 0.36 0.54 0.65 0.55 0.62 0.67 0.74 0.83 0.96 1.11 1.23 1.49 1.71 1.87 1.98 2.05 2.09 1.87 1.67 1.52 1.34 1.19 1.10 0.97 0.89 0.88 0.88 1.19 1.46 1.53 1.54 1.45 1.34 1.39 1.49 1.56 1.62 1.67 1.75 1.64 1.70
0.02 0.05 0.14 0.14 0.09 0.09 0.10 0.36 0.66 0.65 0.64 0.63 0.65 0.81 0.92 1.04 1.20 1.22 1.31 1.56 1.88 2.12 2.48 2.56 2.35 2.13 1.92 1.71 1.49 1.40 1.38 1.31 1.15 0.95 0.86 0.94 1.13 1.28 1.33 1.22 1.21 1.32 1.23 1.22 1.25 1.25 1.30 1.32 1.45
0.05 0.09 0.15 0.23 0.14 0.11 0.20 0.67 0.97 0.73 0.54 0.61 0.75 0.84 1.03 1.16 1.39 1.40 1.39 1.57 1.87 2.39 3.00 2.97 2.49 2.16 1.93 1.77 1.65 1.59 1.53 1.32 1.17 1.03 0.93 0.85 0.82 0.78 0.82 0.80 0.83 0.90 0.91 0.91 0.88 1.02 1.10 1.15 1.25
0.04 0.10 0.21 0.34 0.20 0.18 0.27 0.64 0.68 0.58 0.69 0.65 0.67 0.76 0.89 0.93 1.12 1.22 1.35 1.65 2.16 2.93 3.45 3.32 2.74 2.28 2.02 1.83 1.64 1.44 1.34 1.19 1.06 0.97 0.87 0.71 0.66 0.61 0.58 0.56 0.58 0.57 0.60 0.66 0.69 0.73 0.83 0.85 0.90
0.04 0.09 0.21 0.25 0.18 0.27 0.34 0.53 0.61 0.69 0.81 0.80 0.65 0.61 0.74 0.81 0.95 1.15 1.60 2.26 2.95 3.58 3.64 3.12 2.61 2.29 2.00 1.67 1.17 0.85 0.74 0.72 0.67 0.57 0.51 0.46 0.42 0.43 0.45 0.41 0.40 0.40 0.39 0.40 0.44 0.51 0.57 0.59 0.68
0.06 0.08 0.19 0.25 0.17 0.20 0.33 0.62 0.86 0.80 0.73 0.69 0.69 0.59 0.68 0.91 1.17 1.67 2.45 2.94 2.93 2.80 2.33 1.85 1.58 1.42 1.13 0.84 0.58 0.46 0.41 0.38 0.36 0.34 0.36 0.34 0.29 0.30 0.30 0.30 0.31 0.31 0.29 0.30 0.33 0.36 0.37 0.40 0.51
0.10 0.10 0.18 0.24 0.15 0.15 0.34 0.75 0.95 0.90 0.72 0.59 0.57 0.50 0.70 1.05 1.50 2.13 2.52 2.40 1.91 1.36 1.11 0.95 0.83 0.59 0.43 0.38 0.33 0.28 0.25 0.25 0.23 0.22 0.24 0.24 0.21 0.22 0.23 0.23 0.24 0.27 0.28 0.29 0.32 0.32 0.33 0.32 0.34
0.09 0.06 0.06 0.09 0.15 0.32 0.48 0.94 1.02 0.82 0.76 0.60 0.56 0.53 0.62 0.84 1.06 1.37 1.48 1.18 1.04 0.90 0.77 0.74 0.64 0.40 0.31 0.25 0.21 0.19 0.18 0.20 0.20 0.19 0.19 0.19 0.17 0.18 0.17 0.17 0.16 0.18 0.23 0.29 0.29 0.34 0.34 0.32 0.26
0.04 0.03 0.04 0.10 0.21 0.36 0.51 0.74 0.83 0.63 0.74 0.55 0.42 0.40 0.41 0.56 0.61 0.61 0.59 0.51 0.49 0.49 0.50 0.56 0.55 0.48 0.38 0.30 0.24 0.21 0.19 0.18 0.19 0.19 0.19 0.20 0.20 0.18 0.18 0.18 0.17 0.15 0.15 0.20 0.23 0.31 0.35 0.36 0.31
0.03 0.05 0.12 0.21 0.30 0.63 0.64 0.70 0.84 0.74 0.78 0.58 0.39 0.30 0.34 0.46 0.49 0.43 0.36 0.30 0.30 0.30 0.30 0.36 0.46 0.56 0.52 0.45 0.36 0.30 0.24 0.21 0.20 0.19 0.19 0.19 0.18 0.18 0.17 0.18 0.19 0.19 0.17 0.15 0.15 0.20 0.27 0.34 0.36
0.05 0.07 0.23 0.54 0.80 0.87 0.53 0.59 0.81 0.63 0.57 0.41 0.22 0.15 0.23 0.38 0.49 0.46 0.37 0.27 0.21 0.19 0.17 0.14 0.17 0.28 0.31 0.30 0.31 0.32 0.30 0.26 0.21 0.18 0.15 0.17 0.16 0.16 0.16 0.16 0.18 0.19 0.20 0.19 0.17 0.16 0.19 0.26 0.32
0.04 0.03 0.09 0.18 0.24 0.37 0.45 0.69 0.80 0.61 0.39 0.17 0.07 0.06 0.15 0.23 0.26 0.26 0.23 0.15 0.10 0.08 0.06 0.05 0.04 0.07 0.08 0.10 0.13 0.18 0.22 0.17 0.15 0.21 0.17 0.17 0.21 0.22 0.21 0.16 0.15 0.17 0.18 0.18 0.18 0.17 0.17 0.21 0.26
0.03 0.02 0.03 0.05 0.08 0.23 0.48 0.69 0.59 0.47 0.32 0.14 0.07 0.05 0.06 0.08 0.09 0.10 0.11 0.09 0.06 0.05 0.04 0.03 0.02 0.02 0.02 0.03 0.06 0.10 0.15 0.16 0.14 0.16 0.17 0.16 0.22 0.23 0.21 0.18 0.15 0.15 0.16 0.17 0.18 0.18 0.20 0.23 0.26
0.03 0.02 0.02 0.04 0.08 0.15 0.30 0.58 0.65 0.48 0.33 0.14 0.08 0.07 0.06 0.08 0.07 0.07 0.07 0.06 0.05 0.04 0.04 0.04 0.03 0.03 0.02 0.02 0.03 0.05 0.12 0.15 0.16 0.15 0.17 0.19 0.19 0.19 0.17 0.16 0.14 0.12 0.13 0.16 0.17 0.18 0.23 0.26 0.32
0.05 0.03 0.03 0.03 0.05 0.09 0.17 0.30 0.26 0.21 0.13 0.09 0.05 0.03 0.04 0.04 0.05 0.04 0.04 0.04 0.04 0.03 0.03 0.03 0.03 0.03 0.03 0.02 0.02 0.02 0.06 0.10 0.14 0.18 0.19 0.20 0.19 0.18 0.16 0.15 0.14 0.13 0.13 0.15 0.18 0.20 0.22 0.25 0.31
0.06 0.06 0.05 0.05 0.05 0.06 0.08 0.17 0.11 0.11 0.10 0.06 0.03 0.01 0.01 0.01 0.01 0.01 0.02 0.02 0.02 0.03 0.03 0.04 0.04 0.04 0.03 0.03 0.02 0.01 0.02 0.03 0.06 0.11 0.14 0.17 0.17 0.15 0.15 0.15 0.13 0.11 0.11 0.14 0.19 0.22 0.22 0.25 0.29